Lander, WY

7:13 AM MDT on May 30, 2017 (GMT -0600)
Hunt

Weather History for KLND - March, 2012

Change the Weather History Date:

Saturday, March 17, 2012

  Actual Average Record
Temperature  
Mean Temperature 52 °F 36 °F  
Max Temperature 68 °F 48 °F 71 °F (2007)
Min Temperature 35 °F 24 °F -24 °F (1906)
Degree Days  
Heating Degree Days 13 29  
Month to date heating degree days 403 540  
Since 1 July heating degree days 5746 6244  
Cooling Degree Days 0 0  
Month to date cooling degree days 0 0  
Year to date cooling degree days 0 0  
Moisture  
Dew Point 27 °F    
Average Humidity 43    
Maximum Humidity 64    
Minimum Humidity 22    
Precipitation  
Precipitation 0.00 in 0.04 in 0.64 in (1998)
Month to date precipitation 0.36 0.53  
Year to date precipitation 1.67 1.52  
Snow  
Snow 0.00 in 0.60 in - ()
Month to date snowfall 7.5 7.8  
Since 1 July snowfall 59.2 61.4  
Snow Depth 0.00 in    
Sea Level Pressure  
Sea Level Pressure 29.45 in    
Wind  
Wind Speed 15 mph (SW)    
Max Wind Speed 37 mph    
Max Gust Speed 53 mph    
Visibility 10 miles    
Events      
T = Trace of Precipitation, MM = Missing Value Source: NWS Daily Summary

Daily Weather History Graph

Daily Weather History Graph

Search for Another Location

Airport or City:

Trip Planner

Search our weather history database for the weather conditions in past years. The results will help you decide how hot, cold, wet, or windy it might be!

Date:

Astronomy

Mar. 17, 2012 Rise Set
Actual Time 7:22 AM MDT 7:24 PM MDT
Civil Twilight 6:54 AM MDT 7:52 PM MDT
Nautical Twilight 6:21 AM MDT 8:25 PM MDT
Astronomical Twilight 5:47 AM MDT 8:59 PM MDT
Moon 4:32 AM MDT (3/17) 2:45 PM MDT (3/17)
Length of Visible Light 12h 58m
Length of Day
12h 01m
Waning Crescent, 22% of the Moon is Illuminated
Mar 17
Waning Crescent
Mar 22
New
Mar 30
First Quarter
Apr 6
Full
Apr 13
Last Quarter

Hourly Weather History & Observations

Time (MDT) Temp. Windchill Dew Point Humidity Pressure Visibility Wind Dir Wind Speed Gust Speed Precip Events Conditions
12:53 AM 44.1 °F 40.8 °F 28.0 °F 53% 29.56 in 10.0 mi SE 5.8 mph - N/A   Clear
1:53 AM 43.0 °F - 28.0 °F 56% 29.54 in 10.0 mi Calm Calm - N/A   Clear
2:53 AM 39.9 °F - 28.0 °F 63% 29.53 in 10.0 mi Calm Calm - N/A   Clear
3:53 AM 39.0 °F 35.7 °F 28.0 °F 65% 29.53 in 10.0 mi NW 4.6 mph - N/A   Scattered Clouds
4:53 AM 39.0 °F 32.8 °F 28.0 °F 65% 29.53 in 10.0 mi WSW 9.2 mph - N/A   Scattered Clouds
5:53 AM 37.0 °F 34.5 °F 27.0 °F 67% 29.53 in 10.0 mi WSW 3.5 mph - N/A   Partly Cloudy
6:53 AM 37.0 °F 31.6 °F 27.0 °F 67% 29.54 in 10.0 mi West 6.9 mph - N/A   Clear
7:53 AM 39.9 °F 36.7 °F 27.0 °F 60% 29.52 in 10.0 mi ESE 4.6 mph - N/A   Clear
8:53 AM 39.9 °F 36.7 °F 28.9 °F 65% 29.52 in 10.0 mi North 4.6 mph - N/A   Clear
9:53 AM 45.0 °F - 30.0 °F 56% 29.49 in 10.0 mi Calm Calm - N/A   Clear
10:53 AM 52.0 °F - 30.0 °F 43% 29.44 in 10.0 mi NW 9.2 mph - N/A   Clear
11:53 AM 61.0 °F - 25.0 °F 25% 29.41 in 10.0 mi North 3.5 mph - N/A   Partly Cloudy
12:28 PM 62.6 °F - 24.8 °F 24% 29.53 in 10.0 mi SW 20.7 mph 44.9 mph N/A   Clear
12:53 PM 63.0 °F - 25.0 °F 24% 29.40 in 10.0 mi SSW 25.3 mph 34.5 mph N/A   Mostly Cloudy
1:53 PM 64.9 °F - 25.0 °F 22% 29.37 in 10.0 mi SSW 25.3 mph 36.8 mph N/A   Scattered Clouds
2:53 PM 61.0 °F - 30.0 °F 31% 29.42 in 10.0 mi WSW 11.5 mph 32.2 mph N/A   Clear
3:53 PM 61.0 °F - 27.0 °F 27% 29.41 in 10.0 mi SSW 17.3 mph 27.6 mph N/A   Clear
4:53 PM 57.0 °F - 27.0 °F 32% 29.40 in 10.0 mi SSW 33.4 mph 46.0 mph N/A   Clear
5:53 PM 57.0 °F - 25.0 °F 29% 29.39 in 10.0 mi SSW 34.5 mph 50.6 mph N/A   Clear
6:53 PM 55.9 °F - 24.1 °F 29% 29.38 in 10.0 mi SSW 36.8 mph 52.9 mph N/A   Clear
7:53 PM 54.0 °F - 24.1 °F 31% 29.40 in 10.0 mi South 26.5 mph 35.7 mph N/A   Clear
8:53 PM 54.0 °F - 24.1 °F 31% 29.42 in 10.0 mi South 24.2 mph 32.2 mph N/A   Clear
9:53 PM 52.0 °F - 26.1 °F 37% 29.39 in 10.0 mi South 19.6 mph 29.9 mph N/A   Clear
10:53 PM 52.0 °F - 25.0 °F 35% 29.37 in 10.0 mi South 21.9 mph 27.6 mph N/A   Clear
11:53 PM 52.0 °F - 23.0 °F 32% 29.34 in 10.0 mi South 24.2 mph 34.5 mph N/A   Clear